Location: Krakow
(50.0830°N, 19.9170°E)
Time: 05:34:09
(UTC+02:00)

Tiros 1 - Pass Details

Date: 08 February 2023
Orbit: 627 x 662 km, 48.4° (Epoch: 25 March)

Event Time Altitude Azimuth Distance (km) Brightness Sun altitude
Rises 01:59:45 0° 274° (W) 2,916 - -46.8°
Reaches altitude 10° 02:02:05 10° 272° (W) 2,011 - -46.6°
Maximum altitude 02:06:39 65° 191° (S) 696 - -46.0°
Drops below altitude 10° 02:11:17 10° 110° (ESE) 2,026 - -45.4°
Sets 02:13:38 0° 107° (ESE) 2,940 - -45.1°
